Phuket, Thailand

3:07 AM +07 on July 24, 2017 (GMT +0700)
Phuket International

Weather History for VTSP - March, 2015

Change the Weather History Date:

Friday, March 20, 2015

  Actual Average Record
Temperature  
Mean Temperature 83 °F -  
Max Temperature 91 °F 91 °F 102 °F (1998)
Min Temperature 75 °F 77 °F 72 °F (2014)
Cooling Degree Days 18    
Growing Degree Days 33 (Base 50)    
Moisture  
Dew Point 74 °F    
Average Humidity 69    
Maximum Humidity 90    
Minimum Humidity 53    
Precipitation  
Precipitation 0.00 in 0.16 in - ()
Sea Level Pressure  
Sea Level Pressure 29.86 in    
Wind  
Wind Speed 7 mph ()    
Max Wind Speed 14 mph    
Max Gust Speed -    
Visibility 3.2 miles    
Events      
Averages and records for this station are not official NWS values.
T = Trace of Precipitation, MM = Missing Value Source: Averaged Metar Reports

Daily Weather History Graph

Daily Weather History Graph

Search for Another Location

Airport or City:

Trip Planner

Search our weather history database for the weather conditions in past years. The results will help you decide how hot, cold, wet, or windy it might be!

Date:

Astronomy

Mar. 20, 2015 Rise Set
Actual Time 6:31 AM +07 6:37 PM +07
Civil Twilight 6:10 AM +07 6:58 PM +07
Nautical Twilight 5:46 AM +07 7:22 PM +07
Astronomical Twilight 5:21 AM +07 7:46 PM +07
Moon 6:11 AM +07 (3/20) 6:37 PM +07 (3/20)
Length of Visible Light 12h 48m
Length of Day
12h 06m
Waning Crescent, 0% of the Moon is Illuminated
Mar 20
Waning Crescent
Mar 20
New
Mar 27
First Quarter
Apr 4
Full
Apr 12
Last Quarter

Hourly Weather History & Observations

Time (+07) Temp. Heat Index Dew Point Humidity Pressure Visibility Wind Dir Wind Speed Gust Speed Precip Events Conditions
12:00 AM 82.4 °F 88.2 °F 73.4 °F 74% 29.89 in 4.3 mi West 6.9 mph - N/A   Scattered Clouds
12:30 AM 82.4 °F 88.2 °F 73.4 °F 74% 29.89 in 4.3 mi West 6.9 mph - N/A   Scattered Clouds
1:00 AM 82 °F - 74 °F 72% 29.84 in 4 mi Calm Calm - -   Mist
1:00 AM 82.4 °F 87.2 °F 71.6 °F 70% 29.86 in 4.3 mi WNW 6.9 mph - N/A   Scattered Clouds
1:30 AM 82.4 °F 88.2 °F 73.4 °F 74% 29.86 in 4.3 mi West 6.9 mph - N/A   Scattered Clouds
2:00 AM 80.6 °F 85.4 °F 73.4 °F 79% 29.83 in 4.3 mi West 6.9 mph - N/A   Scattered Clouds
2:30 AM 80.6 °F 85.4 °F 73.4 °F 79% 29.83 in 4.3 mi WNW 6.9 mph - N/A   Scattered Clouds
3:00 AM 80.6 °F 85.4 °F 73.4 °F 79% 29.83 in 4.3 mi WNW 5.8 mph - N/A   Scattered Clouds
3:30 AM 80.6 °F 84.6 °F 71.6 °F 74% 29.83 in 4.3 mi West 6.9 mph - N/A   Scattered Clouds
4:00 AM 79 °F - 75 °F 83% 29.79 in 4 mi West 4.6 mph - -   Mist
4:00 AM 80.6 °F 84.6 °F 71.6 °F 74% 29.83 in 4.3 mi West 6.9 mph - N/A   Scattered Clouds
4:30 AM 80.6 °F 85.4 °F 73.4 °F 79% 29.83 in 4.3 mi West 6.9 mph - N/A   Scattered Clouds
5:00 AM 80.6 °F 85.4 °F 73.4 °F 79% 29.83 in 4.3 mi West 5.8 mph - N/A   Scattered Clouds
5:30 AM 80.6 °F 85.4 °F 73.4 °F 79% 29.83 in 4.3 mi WNW 5.8 mph - N/A   Scattered Clouds
6:00 AM 80.6 °F 85.4 °F 73.4 °F 79% 29.83 in 4.3 mi NW 5.8 mph - N/A   Scattered Clouds
6:30 AM 80.6 °F 85.4 °F 73.4 °F 79% 29.83 in 2.5 mi WNW 5.8 mph - N/A   Mostly Cloudy
7:00 AM 77 °F - 75 °F 90% 29.82 in 2 mi Calm Calm - -   Mist
7:00 AM 80.6 °F 85.4 °F 73.4 °F 79% 29.86 in 2.5 mi NW 4.6 mph - N/A   Mostly Cloudy
7:30 AM 82.4 °F 88.2 °F 73.4 °F 74% 29.86 in 2.5 mi WNW 5.8 mph - N/A   Mostly Cloudy
8:00 AM 82.4 °F 88.2 °F 73.4 °F 74% 29.89 in 2.5 mi WNW 4.6 mph - N/A   Mostly Cloudy
8:30 AM 84.2 °F 90.9 °F 73.4 °F 70% 29.89 in 2.5 mi Variable 4.6 mph - N/A   Mostly Cloudy
9:00 AM 86.0 °F 93.4 °F 73.4 °F 66% 29.92 in 2.5 mi NNW 5.8 mph - N/A   Mostly Cloudy
9:30 AM 87.8 °F 95.6 °F 73.4 °F 62% 29.92 in 2.5 mi Variable 4.6 mph - N/A   Mostly Cloudy
10:00 AM 87 °F - 76 °F 62% 29.88 in 2 mi NNW 10.4 mph - -   Mist
10:00 AM 87.8 °F 93.8 °F 71.6 °F 58% 29.92 in 2.5 mi Variable 3.5 mph - N/A   Mostly Cloudy
10:30 AM 87.8 °F 95.6 °F 73.4 °F 62% 29.92 in 2.5 mi WNW 6.9 mph - N/A   Mostly Cloudy
11:00 AM 89.6 °F 98.2 °F 73.4 °F 59% 29.92 in 2.5 mi West 10.4 mph - N/A   Mostly Cloudy
11:30 AM 89.6 °F 98.2 °F 73.4 °F 59% 29.92 in 2.5 mi WNW 10.4 mph - N/A   Haze
12:00 PM 89.6 °F 98.2 °F 73.4 °F 59% 29.89 in 2.5 mi West 11.5 mph - N/A   Haze
12:30 PM 89.6 °F 98.2 °F 73.4 °F 59% 29.89 in 2.5 mi West 12.7 mph - N/A   Haze
1:00 PM 90 °F - 76 °F 55% 29.86 in 2 mi North 8.1 mph - -   Haze
1:00 PM 89.6 °F 99.8 °F 75.2 °F 62% 29.86 in 2.5 mi West 13.8 mph - N/A   Haze
1:30 PM 89.6 °F 98.2 °F 73.4 °F 59% 29.86 in 2.5 mi WNW 12.7 mph - N/A   Haze
2:00 PM 89.6 °F 99.8 °F 75.2 °F 62% 29.83 in 2.5 mi West 12.7 mph - N/A   Haze
2:30 PM 87.8 °F 95.6 °F 73.4 °F 62% 29.83 in 2.5 mi West 12.7 mph - N/A   Haze
3:00 PM 89.6 °F 98.2 °F 73.4 °F 59% 29.83 in 3.1 mi West 12.7 mph - N/A   Haze
3:30 PM 87.8 °F 95.6 °F 73.4 °F 62% 29.80 in 3.1 mi West 12.7 mph - N/A   Haze
4:00 PM 91 °F - 76 °F 53% 29.78 in 3 mi NNW 5.8 mph - -   Haze
4:00 PM 89.6 °F 98.2 °F 73.4 °F 59% 29.80 in 3.1 mi West 12.7 mph - N/A   Haze
4:30 PM 87.8 °F 95.6 °F 73.4 °F 62% 29.80 in 3.1 mi WNW 13.8 mph - N/A   Haze
5:00 PM 87.8 °F 95.6 °F 73.4 °F 62% 29.80 in 3.1 mi West 13.8 mph - N/A   Haze
5:30 PM 86.0 °F 93.4 °F 73.4 °F 66% 29.80 in 3.1 mi West 13.8 mph - N/A   Mostly Cloudy
6:00 PM 86.0 °F 93.4 °F 73.4 °F 66% 29.83 in 3.1 mi West 12.7 mph - N/A   Mostly Cloudy
6:30 PM 84.2 °F 90.9 °F 73.4 °F 70% 29.83 in 3.1 mi West 11.5 mph - N/A   Mostly Cloudy
7:00 PM 87 °F - 77 °F 65% 29.78 in 3 mi North 6.9 mph - -   Mist
7:00 PM 84.2 °F 92.3 °F 75.2 °F 74% 29.83 in 3.1 mi West 11.5 mph - N/A   Mostly Cloudy
7:30 PM 84.2 °F 90.9 °F 73.4 °F 70% 29.83 in 3.1 mi West 10.4 mph - N/A   Mostly Cloudy
8:00 PM 84.2 °F 90.9 °F 73.4 °F 70% 29.86 in 3.1 mi West 9.2 mph - N/A   Mostly Cloudy
8:30 PM 84.2 °F 90.9 °F 73.4 °F 70% 29.89 in 3.1 mi West 10.4 mph - N/A   Mostly Cloudy
9:00 PM 84.2 °F 90.9 °F 73.4 °F 70% 29.89 in 3.1 mi WNW 9.2 mph - N/A   Mostly Cloudy
9:30 PM 84.2 °F 90.9 °F 73.4 °F 70% 29.89 in 3.1 mi West 6.9 mph - N/A   Mostly Cloudy
10:00 PM 86 °F - 78 °F 70% 29.89 in 3 mi West 2.3 mph - -   Mist
10:00 PM 84.2 °F 90.9 °F 73.4 °F 70% 29.92 in 3.1 mi West 8.1 mph - N/A   Mostly Cloudy
10:30 PM 84.2 °F 90.9 °F 73.4 °F 70% 29.92 in 3.1 mi WNW 4.6 mph - N/A   Mostly Cloudy
11:00 PM 84.2 °F 90.9 °F 73.4 °F 70% 29.92 in 3.1 mi West 4.6 mph - N/A   Mostly Cloudy